contact:dominique.lefevre@mio.osupytheas.fr, maurice.libes@osupytheas.fr
Project:EMSO Ligure-ouest http://www.emso-fr.org/EMSO-France
Sensor Aquadopp, line 04 Serial AQD8517 
DOI : "https://doi.org/10.17882/74513; https://doi.org/10.17882/83244" 
Title:EMSO Ligure Ouest : Data ligne ALBATROSS capteur AQUADOPP - deploiement 2021
Id,Date,Profondeur,Latitude,Longitude,X_East,Y_North,Z_Up,Amplitude_X,Amplitude_Y,Amplitude_Z,Batterie,SoundSpeed,Heading,Pitch,Roll,Pressure,Temperature,Speed,Direction
, , m, degrees North, degrees East, m.s-1, m.s-1,m.s-1, 1, 1, 1, Volt, m.s-1, degree, degree, degree, dbar, degree_C, m.s-1, degree
01,2022-01-14T21:30:00,500.0,42.79,6.0312,0.041,-0.048,-0.013,66.0,61.0,61.0,12.4,1506.5,323.9,-0.2,0.7,452.099,13.88,0.063,139.5
01,2022-01-14T22:00:00,500.0,42.79,6.0312,0.017,-0.055,0.013,67.0,60.0,60.0,12.4,1506.5,340.9,-0.1,0.8,452.177,13.88,0.057,162.8
01,2022-01-14T22:30:00,500.0,42.79,6.0312,0.001,-0.063,-0.006,66.0,60.0,60.0,12.4,1506.5,349.6,-0.2,0.6,452.11,13.88,0.063,179.1
01,2022-01-14T23:00:00,500.0,42.79,6.0312,-0.001,-0.074,0.0,64.0,60.0,61.0,12.4,1506.5,5.3,-0.1,0.7,452.044,13.87,0.074,180.8
01,2022-01-14T23:30:00,500.0,42.79,6.0312,-0.004,-0.064,0.011,64.0,60.0,60.0,12.4,1506.5,21.4,-0.1,0.7,452.031,13.87,0.064,183.6
01,2022-01-15T00:00:00,500.0,42.79,6.0312,-0.012,-0.066,-0.001,65.0,60.0,60.0,12.4,1506.5,17.4,0.0,0.7,452.038,13.87,0.067,190.3
01,2022-01-15T00:30:00,500.0,42.79,6.0312,-0.024,-0.075,-0.004,65.0,60.0,61.0,12.4,1506.5,36.7,-0.2,0.6,452.028,13.87,0.078,197.7
01,2022-01-15T01:00:00,500.0,42.79,6.0312,-0.021,-0.069,0.003,64.0,61.0,61.0,12.4,1506.5,34.9,-0.1,0.8,452.042,13.88,0.072,196.9
01,2022-01-15T01:30:00,500.0,42.79,6.0312,-0.021,-0.051,-0.003,65.0,59.0,59.0,12.4,1506.6,22.5,-0.2,0.7,452.071,13.89,0.055,202.4
01,2022-01-15T02:00:00,500.0,42.79,6.0312,-0.043,-0.058,0.005,66.0,58.0,60.0,12.4,1506.5,31.5,0.0,0.7,452.101,13.87,0.072,216.6
01,2022-01-15T02:30:00,500.0,42.79,6.0312,-0.047,-0.04,0.005,63.0,60.0,60.0,12.4,1506.5,44.2,-0.1,0.7,452.067,13.87,0.061,229.6
01,2022-01-15T03:00:00,500.0,42.79,6.0312,-0.06,-0.029,0.003,65.0,60.0,61.0,12.4,1506.5,56.1,-0.1,0.7,452.137,13.87,0.066,244.2
01,2022-01-15T03:30:00,500.0,42.79,6.0312,-0.061,-0.019,0.012,64.0,60.0,60.0,12.4,1506.5,56.5,-0.2,0.6,452.144,13.87,0.063,252.7
01,2022-01-15T04:00:00,500.0,42.79,6.0312,-0.057,0.017,0.0,65.0,62.0,61.0,12.4,1506.5,36.5,-0.2,0.6,452.186,13.86,0.059,286.6
01,2022-01-15T04:30:00,500.0,42.79,6.0312,-0.067,0.018,0.008,66.0,60.0,60.0,12.4,1506.5,99.4,-0.2,0.6,452.221,13.87,0.069,285.0
01,2022-01-15T05:00:00,500.0,42.79,6.0312,-0.07,0.024,-0.005,66.0,61.0,61.0,12.4,1506.5,106.6,-0.1,0.7,452.215,13.87,0.073,288.9
01,2022-01-15T05:30:00,500.0,42.79,6.0312,-0.051,0.06,0.013,65.0,62.0,61.0,12.4,1506.5,122.5,-0.1,0.7,452.201,13.86,0.078,319.6
01,2022-01-15T06:00:00,500.0,42.79,6.0312,-0.03,0.06,0.014,67.0,61.0,62.0,12.4,1506.5,137.4,-0.1,0.7,452.249,13.86,0.067,333.4
01,2022-01-15T06:30:00,500.0,42.79,6.0312,-0.016,0.08,0.015,65.0,60.0,60.0,12.4,1506.5,166.9,-0.2,0.7,452.21,13.86,0.081,348.7
01,2022-01-15T07:00:00,500.0,42.79,6.0312,-0.033,0.069,-0.003,65.0,60.0,60.0,12.4,1506.5,156.5,-0.1,0.7,452.241,13.86,0.076,334.4
01,2022-01-15T07:30:00,500.0,42.79,6.0312,0.033,0.079,0.003,66.0,60.0,61.0,12.4,1506.5,210.1,-0.1,0.9,452.247,13.86,0.085,22.7
01,2022-01-15T08:00:00,500.0,42.79,6.0312,-0.021,0.073,0.012,66.0,61.0,62.0,12.4,1506.5,172.4,-0.1,0.5,452.195,13.86,0.075,344.0
01,2022-01-15T08:30:00,500.0,42.79,6.0312,-0.004,0.082,0.006,65.0,61.0,60.0,12.4,1506.4,182.4,-0.1,0.5,452.237,13.85,0.082,357.2
01,2022-01-15T09:00:00,500.0,42.79,6.0312,0.09,0.034,-0.007,65.0,60.0,61.0,12.4,1506.4,271.8,-0.2,0.9,452.221,13.85,0.096,69.3
01,2022-01-15T09:30:00,500.0,42.79,6.0312,0.064,-0.041,0.003,66.0,60.0,62.0,12.4,1506.4,315.0,-0.2,1.0,452.201,13.85,0.076,122.6
01,2022-01-15T10:00:00,500.0,42.79,6.0312,0.091,-0.001,0.008,65.0,61.0,61.0,12.4,1506.5,283.7,-0.3,0.9,452.213,13.86,0.091,90.6
01,2022-01-15T10:30:00,500.0,42.79,6.0312,0.021,0.075,0.0,66.0,63.0,61.0,12.4,1506.5,205.0,-0.1,0.5,452.228,13.86,0.077,15.6
01,2022-01-15T11:00:00,500.0,42.79,6.0312,0.051,0.058,0.004,65.0,61.0,61.0,12.4,1506.5,235.6,-0.2,0.5,452.174,13.86,0.077,41.3
01,2022-01-15T11:30:00,500.0,42.79,6.0312,0.083,-0.003,0.014,66.0,60.0,60.0,12.4,1506.4,288.7,-0.3,0.7,452.167,13.85,0.083,92.1
01,2022-01-15T12:00:00,500.0,42.79,6.0312,0.102,-0.004,0.004,65.0,59.0,59.0,12.4,1506.5,305.7,-0.2,0.7,452.122,13.87,0.102,92.2
01,2022-01-15T12:30:00,500.0,42.79,6.0312,0.065,-0.056,-0.022,64.0,60.0,60.0,12.4,1506.5,339.8,-0.2,0.8,452.128,13.87,0.085,130.7
01,2022-01-15T13:00:00,500.0,42.79,6.0312,0.081,-0.042,0.009,65.0,59.0,59.0,12.4,1506.5,327.4,-0.1,0.6,452.096,13.87,0.091,117.4
01,2022-01-15T13:30:00,500.0,42.79,6.0312,0.069,-0.05,0.001,65.0,60.0,59.0,12.4,1506.5,333.0,-0.2,0.7,452.107,13.86,0.085,125.9
01,2022-01-15T14:00:00,500.0,42.79,6.0312,0.086,-0.058,-0.005,64.0,60.0,59.0,12.4,1506.5,333.0,-0.2,0.7,452.114,13.87,0.103,124.0
01,2022-01-15T14:30:00,500.0,42.79,6.0312,0.098,-0.04,-0.008,63.0,59.0,60.0,12.4,1506.6,349.1,-0.2,0.6,452.1,13.89,0.105,112.2
01,2022-01-15T15:00:00,500.0,42.79,6.0312,0.072,-0.061,0.0,64.0,59.0,59.0,12.4,1506.6,359.4,-0.1,0.7,452.126,13.89,0.094,130.3
01,2022-01-15T15:30:00,500.0,42.79,6.0312,0.061,-0.073,-0.001,64.0,59.0,59.0,12.4,1506.6,6.4,-0.1,0.7,452.117,13.89,0.095,140.1
01,2022-01-15T16:00:00,500.0,42.79,6.0312,0.061,-0.068,0.005,63.0,59.0,60.0,12.4,1506.6,28.5,-0.2,0.7,452.137,13.89,0.091,138.1
01,2022-01-15T16:30:00,500.0,42.79,6.0312,0.038,-0.058,0.013,63.0,58.0,59.0,12.4,1506.6,34.5,-0.2,0.7,452.153,13.9,0.069,146.8
01,2022-01-15T17:00:00,500.0,42.79,6.0312,0.031,-0.06,-0.015,63.0,60.0,59.0,12.4,1506.6,41.3,-0.1,0.6,452.173,13.9,0.067,152.7
01,2022-01-15T17:30:00,500.0,42.79,6.0312,0.018,-0.058,0.013,65.0,58.0,58.0,12.4,1506.6,51.4,-0.1,0.7,452.132,13.9,0.06,162.8
01,2022-01-15T18:00:00,500.0,42.79,6.0312,0.002,-0.059,-0.004,63.0,61.0,59.0,12.4,1506.6,56.7,-0.2,0.6,452.205,13.9,0.059,178.1
01,2022-01-15T18:30:00,500.0,42.79,6.0312,-0.004,-0.063,-0.005,63.0,59.0,58.0,12.4,1506.6,53.7,-0.1,0.6,452.152,13.9,0.063,183.6
01,2022-01-15T19:00:00,500.0,42.79,6.0312,-0.016,-0.054,0.019,64.0,59.0,60.0,12.4,1506.6,75.6,-0.2,0.6,452.126,13.9,0.056,196.5
01,2022-01-15T19:30:00,500.0,42.79,6.0312,-0.031,-0.053,-0.015,63.0,59.0,59.0,12.4,1506.6,77.2,-0.2,0.6,452.118,13.89,0.061,210.3
01,2022-01-15T20:00:00,500.0,42.79,6.0312,-0.045,-0.033,0.013,64.0,59.0,59.0,12.4,1506.6,85.5,-0.1,0.6,452.123,13.89,0.055,233.7
01,2022-01-15T20:30:00,500.0,42.79,6.0312,-0.045,0.006,0.0,66.0,59.0,61.0,12.4,1506.5,105.1,0.0,0.6,452.149,13.87,0.045,277.6
01,2022-01-15T21:00:00,500.0,42.79,6.0312,-0.045,-0.002,-0.005,64.0,59.0,60.0,12.4,1506.5,108.9,0.0,0.6,452.052,13.86,0.045,267.5
